Regional Weather Roundup
Issued by NWS

Home | Current Version | Previous Version | Graphics & Text | Print | Product List | Glossary On
Versions: 1 2 3 4 5 6 7 8 9 10 11 12 13 14 15 16 17 18 19 20 21 22 23 24 25 26 27 28 29 30 31 32 33 34 35 36 37 38 39 40 41 42 43 44 45 46 47 48 49 50
000
ASUS43 KLOT 261308
RWRIL

ILLINOIS REGIONAL WEATHER ROUNDUP
NATIONAL WEATHER SERVICE CHICAGO/ROMEOVILLE IL
800 AM CDT WED APR 26 2017

NOTE: "FAIR" INDICATES FEW OR NO CLOUDS BELOW 12,000 FEET WITH NO
SIGNIFICANT WEATHER AND/OR OBSTRUCTIONS TO VISIBILITY.

* THESE STATIONS ARE NOT UNDER NWS QUALITY CONTROL. THEY ALSO MAY NOT
  REPORT WEATHER SUCH AS PRECIPITATION OR FOG.

ILZ001-002-007-009-015-016-024-261400-
NORTHWEST ILLINOIS

CITY           SKY/WX    TMP DP  RH WIND       PRES   REMARKS
MOLINE         CLOUDY    61  59  93 CALM      29.36F
STERLING*      RAIN      58  57  97 SE6       29.42F FOG
SAVANNA*       HVY RAIN  60  57  91 S7        29.41F
$$

ILZ003-004-008-010-011-017-018-261400-
NORTH CENTRAL ILLINOIS

CITY           SKY/WX    TMP DP  RH WIND       PRES   REMARKS
ROCKFORD       TSTM      61  57  87 S30G41    29.47R FOG
FREEPORT*      LGT RAIN  59  55  85 S12       29.44R
ROCHELLE*      TSTM      59  57  91 S17G33    29.45R
DE KALB*       TSTM      62  57  84 S17G23    29.48R
PERU*          CLOUDY    59  56  89 S5        29.40F
$$

ILZ005-006-012>014-019>023-261400-
NORTHEAST ILLINOIS

CITY           SKY/WX    TMP DP  RH WIND       PRES   REMARKS
CHICAGO-OHARE  CLOUDY    67  55  65 SE12      29.40F
CHICAGO-MIDWAY CLOUDY    67  56  67 S17G23    29.46F
AURORA         CLOUDY    65  56  72 S17G24    29.47S
LANSING*       PTSUNNY   65  58  79 S14       29.49F
JOLIET*        CLOUDY    67  57  71 S10G17    29.48R
WAUKEGAN       PTSUNNY   65  56  72 S13       29.47R
DUPAGE AIRPORT CLOUDY    65  58  78 S16       29.45F
KANKAKEE*      CLOUDY    66  55  68 S15G21    29.50F
WHEELING       PTSUNNY   66  57  72 S15       29.46F
MORRIS*        CLOUDY    65  56  70 S13G20    29.44F
ROMEOVILLE*    CLOUDY    65  59  80 S16       29.48S
NORTHERLY ISL    N/A     65  53  65 SE13        N/A
$$

LMZ740>746-261400-
SOUTHERN LAKE MICHIGAN

STATION/POSITION SKY/WX   TEMP    WIND        PRES    VSBY  WAVE
                          AIR SEA DIR/SP/G                  HT/PER
                          (F)     (DEG/KT/KT) (MB)    (MI)  (FT/S)
SOUTHERN BUOY              48 41  120/ 12/ 14  998.9          1/ 3
HARRISON CRIB              63     180/ 19/ 25   N/A
BURNHAM HARBOR             65     150/ 10/ 18   N/A
CALUMET HARBOR             66     160/ 10/ 19  998.4F
BURNS HARBOR               66     180/ 14/ 20 1000.7R
MICHIGAN CITY              65     160/ 13/ 15   N/A
ST. JOSEPH                 60 49  180/ 12/ 17 1000.8          1/ 2
$$

ILZ025>027-034>036-040-047-049-050-058-095>099-261400-
WEST-CENTRAL ILLINOIS

CITY           SKY/WX    TMP DP  RH WIND       PRES   REMARKS
QUINCY         PTSUNNY   62  60  93 W12       29.48R
GALESBURG*     CLOUDY    59  59  99 S9        29.42R
MACOMB*        CLOUDY    61  60  97 W10       29.46R
JACKSONVILLE*  PTSUNNY   61  59  94 S7        29.45R
PITTSFIELD*    CLOUDY    61  61  99 SW7       29.49R
$$

ILZ028>032-037-038-041>044-048-051>054-059>061-261400-
CENTRAL ILLINOIS

CITY           SKY/WX    TMP DP  RH WIND       PRES   REMARKS
PONTIAC        CLOUDY    65  60  83 S16       29.44F
BLOOMINGTON    CLOUDY    64  58  80 S15       29.44F
DECATUR        CLOUDY    67  58  72 S12       29.44F
PEORIA         CLOUDY    60  59  96 S6        29.42R
LACON*         CLOUDY    60  59  96 SE8       29.39F
LINCOLN*       PTSUNNY   66  59  78 CALM      29.42R
SPRINGFIELD    CLOUDY    66  58  75 SW6       29.43R
TAYLORVILLE    CLOUDY    66  55  67 SW9       29.46S
$$

ILZ033-039-045-046-055>057-062-063-261400-
EAST-CENTRAL ILLINOIS

CITY           SKY/WX    TMP DP  RH WIND       PRES   REMARKS
CHAMPAIGN      CLOUDY    69  55  60 S22       29.49F
RANTOUL*       CLOUDY    69  58  66 S17G25    29.50F
MATTOON        MOSUNNY   67  58  72 S15G22    29.52F
PARIS*         CLOUDY    67  58  71 S18       29.57S
$$

ILZ079-100>102-261400-
SOUTHWEST ILLINOIS

CITY           SKY/WX    TMP DP  RH WIND       PRES   REMARKS
ALTON          CLOUDY    64  55  72 S12       29.49R
BELLEVILLE     CLOUDY    67  56  68 SE6       29.47F
CAHOKIA*       PTSUNNY   66  54  65 S5        29.48R
SPARTA*        CLOUDY    66  56  69 SE9       29.52F
$$

ILZ064>066-069>071-074>076-080>082-084>086-088>090-092>094-261400-
SOUTH-CENTRAL ILLINOIS

CITY           SKY/WX    TMP DP  RH WIND       PRES   REMARKS
CARBONDALE     SUNNY     68  60  75 S13       29.55F
CAIRO*         SUNNY     66  58  75 S10       29.60F
EFFINGHAM*     MOSUNNY   67  58  72 SE9       29.52F
MARION         MOSUNNY   68  61  77 S12       29.58F
MT. VERNON     SUNNY     68  59  73 S12       29.55F
CENTRALIA*     MOSUNNY   69  59  72 S15G21    29.51F
SALEM*         MOSUNNY   70  57  64 S12G17    29.52F
METROPOLIS*    SUNNY     68  58  72 S7        29.63F
$$

ILZ067-068-072-073-078-083-087-091-261400-
SOUTHEAST ILLINOIS

CITY           SKY/WX    TMP DP  RH WIND       PRES   REMARKS
LAWRENCEVILLE  MOSUNNY   66  57  72 S16       29.61R
FLORA*         PTSUNNY   67  58  72 S16       29.55F
FAIRFIELD*     SUNNY     66  57  73 S8        29.56F
HARRISBURG*    SUNNY     68  59  74 S9        29.60F
ROBINSON*      MOSUNNY   65  57  74 S15       29.60F
CARMI*         SUNNY     66  58  76 S10G17    29.60F
$$

ABBREVIATIONS USED IN REMARKS
   TC - TEMPERATURE IN CELSIUS
  WCI - WIND CHILL INDEX
   HX - HEAT INDEX
  VSB - VISIBILITY
$$





USA.gov is the U.S. government's official web portal to all federal, state and local government web resources and services.